Rotterdam, Netherlands

2:13 AM CEST on June 24, 2017 (GMT +0200)
Rotterdam

Weather History for EHRD - August, 2013

Change the Weather History Date:

Saturday, August 3, 2013

  Actual Average Record
Temperature  
Mean Temperature 66 °F -  
Max Temperature 73 °F 69 °F 80 °F (1999)
Min Temperature 60 °F 55 °F 50 °F (1998)
Cooling Degree Days 2    
Growing Degree Days 16 (Base 50)    
Moisture  
Dew Point 58 °F    
Average Humidity 70    
Maximum Humidity 94    
Minimum Humidity 46    
Precipitation  
Precipitation 0.00 in - - ()
Sea Level Pressure  
Sea Level Pressure 30.00 in    
Wind  
Wind Speed 10 mph ()    
Max Wind Speed 20 mph    
Max Gust Speed -    
Visibility 7.1 miles    
Events Rain    
Averages and records for this station are not official NWS values.
T = Trace of Precipitation, MM = Missing Value Source: Averaged Metar Reports

Daily Weather History Graph

Daily Weather History Graph

Search for Another Location

Airport or City:

Trip Planner

Search our weather history database for the weather conditions in past years. The results will help you decide how hot, cold, wet, or windy it might be!

Date:

Astronomy

Aug. 03, 2013 Rise Set
Actual Time 6:07 AM CEST 9:28 PM CEST
Civil Twilight 5:26 AM CEST 10:08 PM CEST
Nautical Twilight 4:31 AM CEST 11:02 PM CEST
Astronomical Twilight 3:15 AM CEST 12:17 AM CEST
Moon 2:58 AM CEST (8/3) 7:03 PM CEST (8/3)
Length of Visible Light 16h 42m
Length of Day
15h 20m
Waning Crescent, 11% of the Moon is Illuminated
Aug 3
Waning Crescent
Aug 6
New
Aug 14
First Quarter
Aug 21
Full
Aug 28
Last Quarter

Hourly Weather History & Observations

Time (CEST) Temp. Dew Point Humidity Pressure Visibility Wind Dir Wind Speed Gust Speed Precip Events Conditions
12:25 AM 68.0 °F 62.6 °F 83% 29.83 in 6.2 mi WSW 9.2 mph - N/A   Unknown
12:55 AM 68.0 °F 62.6 °F 83% 29.83 in 6.2 mi WSW 9.2 mph - N/A   Unknown
1:25 AM 68.0 °F 62.6 °F 83% 29.83 in 6.2 mi WSW 9.2 mph - N/A   Unknown
1:55 AM 68.0 °F 62.6 °F 83% 29.86 in 6.2 mi WSW 10.4 mph - N/A   Unknown
2:00 AM 68 °F 62 °F 76% 29.87 in 22 mi WSW 11.2 mph - -   Partly Cloudy
2:25 AM 68.0 °F 62.6 °F 83% 29.86 in 6.2 mi WSW 10.4 mph - N/A   Unknown
2:55 AM 68.0 °F 62.6 °F 83% 29.86 in 6.2 mi WSW 3.5 mph - N/A   Unknown
3:25 AM 68.0 °F 62.6 °F 83% 29.86 in 6.2 mi SW 9.2 mph - N/A   Unknown
3:55 AM 68.0 °F 62.6 °F 83% 29.86 in 6.2 mi SW 11.5 mph - N/A   Unknown
4:25 AM 66.2 °F 62.6 °F 88% 29.86 in 6.2 mi SW 5.8 mph - N/A   Unknown
4:55 AM 64.4 °F 62.6 °F 94% 29.86 in 6.2 mi SW 5.8 mph - N/A   Unknown
5:00 AM 66 °F 62 °F 84% 29.89 in 16 mi SSW 6.7 mph - -   Partly Cloudy
5:25 AM 66.2 °F 60.8 °F 83% 29.89 in 6.2 mi SSW 6.9 mph - N/A   Unknown
5:55 AM 66.2 °F 60.8 °F 83% 29.89 in 6.2 mi SSW 5.8 mph - N/A   Unknown
6:25 AM 66.2 °F 60.8 °F 83% 29.92 in 6.2 mi South 6.9 mph - N/A   Partly Cloudy
6:55 AM 68.0 °F 60.8 °F 78% 29.92 in 6.2 mi SSW 8.1 mph - N/A   Scattered Clouds
7:25 AM 68.0 °F 60.8 °F 78% 29.92 in 6.2 mi SW 10.4 mph - N/A   Mostly Cloudy
7:55 AM 68.0 °F 62.6 °F 83% 29.92 in 6.2 mi SW 12.7 mph - N/A   Unknown
8:00 AM 69 °F 62 °F 72% 29.94 in 16 mi SW 13.4 mph - - Rain Rain
8:25 AM 68.0 °F 60.8 °F 78% 29.92 in 6.2 mi WSW 15.0 mph - N/A   Partly Cloudy
8:55 AM 69.8 °F 60.8 °F 73% 29.95 in 6.2 mi WSW 15.0 mph - N/A   Unknown
9:25 AM 71.6 °F 60.8 °F 69% 29.95 in 6.2 mi WSW 18.4 mph - N/A   Partly Cloudy
9:55 AM 68.0 °F 57.2 °F 68% 29.98 in 6.2 mi WSW 18.4 mph - N/A   Scattered Clouds
10:25 AM 69.8 °F 59.0 °F 68% 29.98 in 6.2 mi WSW 17.3 mph - N/A   Mostly Cloudy
10:55 AM 68.0 °F 57.2 °F 68% 30.01 in 6.2 mi WSW 17.3 mph - N/A   Scattered Clouds
11:00 AM 69 °F 56 °F 54% 30.02 in 19 mi WSW 17.9 mph - -   Scattered Clouds
11:25 AM 69.8 °F 55.4 °F 60% 30.01 in 6.2 mi WSW 16.1 mph - N/A   Partly Cloudy
11:55 AM 71.6 °F 57.2 °F 60% 30.01 in 6.2 mi SW 17.3 mph - N/A   Unknown
12:25 PM 73.4 °F 57.2 °F 57% 30.04 in 6.2 mi SW 17.3 mph - N/A   Mostly Cloudy
12:55 PM 71.6 °F 55.4 °F 57% 30.04 in 6.2 mi WSW 19.6 mph - N/A   Partly Cloudy
1:25 PM 69.8 °F 55.4 °F 60% 30.04 in 6.2 mi WSW 17.3 mph - N/A   Mostly Cloudy
1:55 PM 71.6 °F 55.4 °F 57% 30.06 in 6.2 mi WSW 19.6 mph - N/A   Partly Cloudy
2:00 PM 72 °F 56 °F 46% 30.07 in 14 mi WSW 20.1 mph - -   Partly Cloudy
2:25 PM 71.6 °F 55.4 °F 57% 30.06 in 6.2 mi West 15.0 mph - N/A   Partly Cloudy
2:55 PM 73.4 °F 57.2 °F 57% 30.06 in 6.2 mi WSW 16.1 mph - N/A   Partly Cloudy
3:25 PM 73.4 °F 59.0 °F 61% 30.09 in 6.2 mi WSW 16.1 mph - N/A   Scattered Clouds
3:55 PM 71.6 °F 57.2 °F 60% 30.09 in 6.2 mi WSW 15.0 mph - N/A   Partly Cloudy
4:25 PM 71.6 °F 57.2 °F 60% 30.09 in 6.2 mi WSW 17.3 mph - N/A   Partly Cloudy
4:55 PM 69.8 °F 57.2 °F 64% 30.09 in 6.2 mi WSW 15.0 mph - N/A   Partly Cloudy
5:00 PM 72 °F 55 °F 46% 30.11 in 16 mi WSW 15.7 mph - -   Scattered Clouds
5:25 PM 71.6 °F 55.4 °F 57% 30.09 in 6.2 mi WSW 16.1 mph - N/A   Scattered Clouds
5:55 PM 71.6 °F 53.6 °F 53% 30.09 in 6.2 mi WSW 17.3 mph - N/A   Unknown
6:25 PM 71.6 °F 53.6 °F 53% 30.09 in 6.2 mi WSW 17.3 mph - N/A   Unknown
6:55 PM 71.6 °F 55.4 °F 57% 30.09 in 6.2 mi WSW 15.0 mph - N/A   Unknown
7:25 PM 71.6 °F 53.6 °F 53% 30.09 in 6.2 mi WSW 11.5 mph - N/A   Unknown
7:55 PM 69.8 °F 53.6 °F 56% 30.09 in 6.2 mi WSW 12.7 mph - N/A   Unknown
8:00 PM 69 °F 53 °F 47% 30.12 in 22 mi WSW 13.4 mph - -   Partly Cloudy
8:25 PM 68.0 °F 53.6 °F 60% 30.09 in 6.2 mi WSW 10.4 mph - N/A   Unknown
8:55 PM 66.2 °F 55.4 °F 68% 30.09 in 6.2 mi WSW 8.1 mph - N/A   Unknown
9:25 PM 66.2 °F 55.4 °F 68% 30.12 in 6.2 mi WSW 6.9 mph - N/A   Unknown
9:55 PM 64.4 °F 57.2 °F 77% 30.12 in 6.2 mi SW 3.5 mph - N/A   Unknown
10:25 PM 60.8 °F 55.4 °F 82% 30.12 in 6.2 mi SW 5.8 mph - N/A   Unknown
10:55 PM 62.6 °F 57.2 °F 82% 30.12 in 6.2 mi SW 3.5 mph - N/A   Unknown
11:00 PM 62 °F 57 °F 78% 30.15 in 22 mi SW 4.5 mph - -  
11:25 PM 60.8 °F 57.2 °F 88% 30.12 in 6.2 mi Variable 2.3 mph - N/A   Unknown
11:55 PM 60.8 °F 57.2 °F 88% 30.12 in 6.2 mi Variable 2.3 mph - N/A   Unknown